Погода в Верхоянске

Погода в Верхоянске : погода сейчас, прогноз погоды и архив. Всё, что Вы хотите узнать о погоде в Верхоянске!

Хотите узнать прогноз погоды в Верхоянске? Тогда Вам сюда: Погода в Верхоянске

Поиск расширенной информации на нашем сайте:

Другие новости

Новости СМИ2

Главная страница сайта

Новости сайта

03.07.2017

Напоминаем, что на нашем специализированном сайте Метеоцентр.Азия вы можете получить высокодетализированные автоматические прогнозы погоды по пунктам России, СНГ и мира в авиационном формате (включающие направление и скорость ветра, видимость, явления погоды, количество и форму облачности, нижнюю и верхнюю границу облачности).


Погода в Верхоянске - сегодня

Время (UTC), дата Ветер
(°,м/с) 
Видим.   Явления Облачность Т
(°С)
Тd
(°С)
f(%) Тe
(°С)
Pmin
(гПа)
dP
(гПа)
Po
(мм)
O2
(г/м3)
Тmin Tmax R s Состояние
почвы
03 18.04.18 190 (Ю) 20000 м    8/1 1000 м средняя, верхняя 
[Cu hum|Ac trans|Ci fib]
-0.2 -7.6 57 1004.1  0.1  740  299           
06 18.04.18 050 (СВ) 20000 м    8/3 1000 м верхняя 
[Sc|Ci fib]
+0.4 -7.4 56 1004.3  0.2  740  299           
12 18.04.18 010 (С) 20000 м    5/0 верхняя 
[Ci fib]
-3.2 -9.1 64 -4  1005.8  741  303           
15 18.04.18 030 (СВ) 20000 м    5/0 верхняя 
[Ci fib]
-7.8 -11.4 75 -8  1006.8  0.7  742  309           
18 18.04.18 тихо ()   20000 м    3/0 верхняя 
[Ci fib]
-11.8 -13.8 85 -12  1007.9  0.8  743  314           
21 18.04.18 360 (С) 20000 м    3/0 верхняя 
[Ci fib]
-12.8 -14.1 90 -13  1008.4  0.5  743  315  -14.4      16  неравномерный
мокрый или
старый снег
100% 
03 19.04.18 030 (СВ) 20000 м    1/0 верхняя 
[Ci fib]
+0 -6 64 -2  1006.7  -0.9  742  300           
06 19.04.18 140 (ЮВ) 20000 м    3/0 верхняя 
[Ci fib]
+3.4 -7.7 44 +2  1005.5  -1  741  296           
12 19.04.18 060 (СВ) 20000 м    10/0 средняя 
[As trans]
+1 -7 55 1006.3  0.9  742  299           
15 19.04.18 040 (СВ) 20000 м    10/0 средняя, верхняя 
[Ac trans|Cs]
-2.1 -7.9 64 -3  1006.9  0.6  742  302           
18 19.04.18 тихо ()   20000 м    8/0 средняя, верхняя 
[Ac trans|Ci fib]
-5 -8.6 76 -5  1008.1  0.9  743  306           
21 19.04.18 тихо ()   20000 м    8/0 средняя, верхняя 
[Ac trans|Ci fib]
-6.5 -10.6 73 -7  1009.4  1.3  744  308  -8      мокрый или
старый снег
50-90% 
00 20.04.18 020 (С) 20000 м    4/0 средняя 
[Ac trans]
+0.1 -6.3 62 -1  1009.2  0.2  744  300           
03 20.04.18 290 (З) 20000 м    8/0 средняя 
[Ac trans]
+3.5 -6.7 47 +4  1008.9  744  297           
06 20.04.18 280 (З) 20000 м    10/0 средняя, верхняя 
[Ac trans|Cs]
+5 -6 45 +6  1008.9  744  295           
12 20.04.18 250 (З) 20000 м    10/0 средняя 
[Ac As]
+2.1 -2.8 70 +1  1010.8  0.8  745  298           
15 20.04.18 230 (ЮЗ) 20000 м    10/0 средняя, верхняя 
[Ac trans|Cs]
+0.4 -2.7 80 1011.1  0.2  745  300           
18 20.04.18 260 (З) 20000 м    10/0 средняя, верхняя 
[Ac trans|Cs]
-1.1 -2.7 89 -1  1011.5  0.3  746  302           
21 20.04.18 180 (Ю) 20000 м    10/0 средняя, верхняя 
[Ac trans|Cs]
-1.2 -3.4 85 -1  1011.7  0.2  746  302  -1.8      мокрый или
старый снег
50-90% 
00 21.04.18 010 (С) 20000 м    9/0 верхняя 
[Cs]
+1 -4.6 66 +2  1011.6  746  300           
03 21.04.18 310 (СЗ) 20000 м  осадки на расстоянии  9/3 1000 м кучево-дожд., верхняя 
[Cb cap|Cs]
+2.8 -4.1 60 +2  1011.4  746  298           
06 21.04.18 240 (ЮЗ) 20000 м  осадки на расстоянии  9/9 1000 м 
+2.6 -3.6 64 +2  1011.7  0.3  746  298           
00 22.04.18 210 (ЮЗ) 20000 м  {ливн. осадки}  9/4 1000 м средняя 
[Sc|Ac trans]
-3.7 -11.3 56 -6  1017.3  0.5  750  307  -4.9         
03 22.04.18 170 (Ю) 20000 м    3/3 1000 м средняя 
[Sc|Ac trans]
-0.8 -11.4 44 -2  1017  -0.1  750  304           
06 22.04.18 220 (ЮЗ) 20000 м    8/5 1000 м средняя 
[Sc|Ac trans]
+0.2 -10.1 46 -2  1016.5  -0.5  749  303           
Время (UTC), дата Ветер
(°,м/с) 
Видим.   Явления Облачность Т
(°С)
Тd
(°С)
f(%) Тe
(°С)
Pmin
(гПа)
dP
(гПа)
Po
(мм)
O2
(г/м3)
Тmin Tmax R s Состояние
почвы

Для получения пояснительной информации подведите курсор к названию столбца.

ПОГОДА в Верхоянске - архив

Всё, что Вы хотите узнать о погоде в Верхоянске - удобно и подробно!

Выберите нужную дату (начиная с 1 января 2015* года) и нажмите кнопку "Найти".
Будут отображены архивные сводки погоды по пункту Верхоянск, начиная с указанной даты.


Отображать данные в формате CSV (для использования в таблицах Excel)


Внимание! Наш архив погоды предназначен исключительно для личного некоммерческого использования в познавательных целях. Если Вам необходимы официальные справки о состоянии погоды (для производственных, юридических, коммерческих и т.п. целей), обращайтесь в органы Росгидромета.

*Примечание: данная дата относится к архиву по метеостанциям СССР (Россия, СНГ, Балтия).
Архив по метеостанциям Зарубежной Европы и Азии (кроме Китая) хранится 10 дней, по другим регионам земного шара (Китай, Африка, Америка, Австралия, Океания) - 1 день.

Верхоянск - район местоположения метеостанции


Название, широта, долгота, высота метеостанции:
Верхоянск 67.6°ш. 133.4°д. 137 м над ур. моря [Российская Федерация]

Дополнительная информация

В oтличие oт бoльшинства пoгoдных сайтoв мы публикуем пoдрoбную метеoинфoрмацию в детальнoм прoфессиoнальнoм фoрмате.

Характеристики температуры и влажнoсти вoздуха измеряются на высoте 2 м в тени вдали oт зданий и деревьев.
Скoрoсть ветра измеряется на высoте 10 м (на урoвне рoста челoвека скoрoсть ветра ниже в 1.5-2 раза). Если метеoстанция нахoдится в гoрoде или в лесу, тo скoрoсть ветра занижена на 2-4 м/с пo сравнению с oткрытым местoм. Скoрoсть ветра над акватoриями крупных рек и oзёр, а также на вершинах хoлмoв на 2-5 м/с выше, чем в oбычных услoвиях.
Атмoсфернoе давление в разных тoчках местнoсти мoжет значительнo oтличаться oт давления на метеoстанции, в зависимoсти oт услoвий рельефа (при пoдъёме на 10 м давление пoнижается примернo на 1 мм рт.ст.).